DW7816 Weather Reports


Display with metric or nautical units.
time (UTC)temp
F
wind
direction
speed
MPH
gust
MPH
rain 1hr
in
rain 24hr
in
rain mn
in
humidity
%
barometer
mb
20260506004912 45 150 1.0 7.0 0.00 0.12 0.12 95 1010.1
20260506002736 46 92 2.0 10.0 0.00 0.10 0.10 95 1009.5
20260506001707 46 105 2.0 8.0 0.00 0.10 0.10 95 1009.6
20260506000645 46 221 1.0 9.0 0.00 0.10 0.10 95 1009.0
20260505235633 46 65 2.0 10.0 0.00 0.10 0.10 95 1009.0
20260505234621 46 122 2.0 10.0 0.00 0.10 0.10 95 1009.5
20260505232517 46 85 3.0 12.0 0.00 0.10 0.10 94 1008.9
20260505231538 47 59 2.0 12.0 0.00 0.10 0.10 94 1008.5
20260505230514 47 109 2.0 10.0 0.00 0.09 0.10 94 1008.9
20260505225505 47 143 2.0 10.0 0.00 0.09 0.10 93 1008.7
20260505224503 48 185 2.0 10.0 0.00 0.09 0.10 92 1009.1
20260505223506 48 63 2.0 10.0 0.00 0.09 0.10 91 1008.9
20260505222510 48 235 2.0 14.0 0.00 0.09 0.10 91 1008.5
20260505221503 48 148 4.0 14.0 0.00 0.09 0.10 90 1008.2
20260505215339 48 11 2.0 13.0 0.00 0.09 0.10 91 1008.4
20260505213224 48 243 2.0 8.0 0.00 0.09 0.10 91 1008.5
20260505212239 49 21 2.0 9.0 0.00 0.09 0.10 93 1008.2
20260505211217 49 140 2.0 9.0 0.00 0.09 0.10 93 1008.1
20260505210225 49 13 2.0 6.0 0.00 0.09 0.10 93 1008.1
20260505205151 50 165 1.0 6.0 0.00 0.09 0.10 94 1008.2
20260505204144 50 43 2.0 7.0 0.00 0.09 0.10 93 1008.4
20260505203204 50 41 1.0 7.0 0.00 0.09 0.10 94 1008.1
20260505202212 51 98 1.0 8.0 0.00 0.09 0.10 94 1007.8
20260505201222 51 74 2.0 8.0 0.00 0.09 0.10 94 1007.4
20260505200153 51 306 3.0 8.0 0.00 0.09 0.10 94 1007.5
20260505195204 51 95 2.0 8.0 0.00 0.09 0.10 93 1007.8
20260505193053 52 132 2.0 12.0 0.00 0.09 0.10 91 1008.2
20260505192103 53 102 2.0 15.0 0.00 0.09 0.10 91 1007.6
20260505191113 53 123 5.0 15.0 0.00 0.09 0.10 89 1007.4
20260505190111 53 114 2.0 10.0 0.00 0.09 0.10 87 1007.6
20260505185133 54 94 2.0 13.0 0.00 0.09 0.10 89 1007.7
20260505184111 54 102 3.0 13.0 0.00 0.09 0.10 87 1007.8
20260505182036 55 108 4.0 12.0 0.00 0.09 0.10 86 1007.3
20260505181032 56 123 3.0 12.0 0.00 0.09 0.10 87 1007.1
20260505180040 56 136 3.0 10.0 0.00 0.09 0.10 86 1007.1
20260505175029 56 148 2.0 9.0 0.00 0.09 0.10 86 1007.2
20260505174037 56 80 1.0 12.0 0.00 0.09 0.10 87 1007.2
20260505173029 56 157 3.0 12.0 0.00 0.09 0.10 87 1007.3
20260505170912 56 95 3.0 9.0 0.00 0.09 0.10 87 1007.2
20260505165902 56 322 2.0 10.0 0.00 0.09 0.10 87 1007.2
20260505163750 57 128 2.0 8.0 0.00 0.09 0.10 85 1007.1
20260505161641 57 51 3.0 12.0 0.00 0.09 0.10 88 1007.4
20260505160616 58 48 3.0 12.0 0.00 0.09 0.10 88 1007.6
20260505152647 59 130 6.0 11.0 0.00 0.09 0.10 88 1006.1
20260505151637 59 188 4.0 11.0 0.00 0.09 0.10 88 1006.0
20260505150608 59 113 5.0 9.0 0.00 0.09 0.10 86 1006.2
20260505140403 59 159 3.0 7.0 0.00 0.09 0.10 88 1006.2
20260505130300 57 126 3.0 10.0 0.00 0.09 0.10 89 1005.8
20260505124322 57 162 3.0 11.0 0.00 0.09 0.10 90 1005.7
20260505122208 58 173 4.0 10.0 0.00 0.09 0.10 91 1005.3
20260505121223 58 161 3.0 8.0 0.00 0.09 0.10 92 1005.6
20260505120240 58 108 1.0 8.0 0.00 0.09 0.10 92 1005.2
20260505115226 59 118 0.0 9.0 0.00 0.09 0.10 92 1005.4
20260505114203 59 175 1.0 6.0 0.00 0.09 0.10 93 1005.2
20260505113131 59 71 2.0 9.0 0.00 0.09 0.10 94 1004.5
20260505112142 60 220 1.0 1.0 0.00 0.09 0.10 95 1004.6
20260505111155 60 355 1.0 8.0 0.00 0.09 0.10 95 1005.8
20260505110139 60 67 2.0 8.0 0.00 0.09 0.10 94 1004.9
20260505102005 58 38 0.0 3.0 0.00 0.09 0.10 96 1004.4
20260505100958 59 203 0.0 0.0 0.00 0.09 0.10 95 1004.2
20260505100006 59 203 0.0 0.0 0.00 0.09 0.10 95 1004.0
20260505095005 59 203 0.0 0.0 0.00 0.09 0.10 94 1003.5
20260505094020 59 203 0.0 5.0 0.04 0.09 0.10 93 1003.5
20260505093002 59 290 3.0 10.0 0.04 0.09 0.10 94 1003.1
20260505092000 60 240 4.0 10.0 0.05 0.09 0.09 95 1002.7
20260505090947 60 211 1.0 4.0 0.06 0.08 0.08 94 1004.3
20260505084904 61 264 0.0 4.0 0.23 0.04 0.05 92 1005.3
20260505083845 61 22 0.0 0.0 0.08 0.02 0.02 91 1005.4
20260505082836 62 340 0.0 2.0 0.00 0.00 0.01 89 1005.3
20260505080638 63 204 2.0 10.0 0.00 0.00 0.00 83 1004.6
20260505075632 63 264 1.0 10.0 0.00 0.00 0.00 81 1004.7
20260505074602 63 236 0.0 4.0 0.00 0.00 0.00 81 1004.5
20260505073529 63 263 0.0 0.0 0.00 0.00 0.00 81 1004.5
20260505072544 63 202 0.0 3.0 0.00 0.00 0.00 80 1004.3
20260505071544 63 171 0.0 5.0 0.00 0.00 0.00 81 1004.4
20260505065400 63 206 0.0 5.0 0.00 0.00 0.00 81 1004.3
20260505064412 63 265 0.0 5.0 0.00 0.00 0.00 80 1004.7
20260505063429 63 245 1.0 5.0 0.00 0.00 0.00 80 1005.0
20260505061309 63 162 0.0 2.0 0.00 0.00 0.00 80 1005.2
20260505060300 63 266 1.0 6.0 0.00 0.00 0.00 80 1005.1
20260505055226 63 221 1.0 5.0 0.00 0.00 0.00 80 1005.0
20260505053048 63 238 0.0 5.0 0.00 0.00 0.00 80 1005.1
20260505052038 63 236 1.0 6.0 0.00 0.00 0.00 80 1005.1
20260505051005 63 227 1.0 6.0 0.00 0.00 0.00 81 1005.2
20260505041017 62 247 0.0 1.0 0.00 0.00 0.00 81 1005.9
20260505040031 63 261 0.0 1.0 0.00 0.00 0.00 81 1006.1
20260505035005 63 229 0.0 0.0 0.00 0.00 0.00 79 1006.2
20260505034007 64 232 0.0 0.0 0.00 0.00 0.00 79 1006.3
20260505031835 64 240 0.0 5.0 0.00 0.00 0.00 77 1006.3
20260505025656 64 238 0.0 2.0 0.00 0.00 0.00 78 1006.2
20260505024622 64 202 0.0 0.0 0.00 0.00 0.00 77 1006.1
20260505023619 64 195 0.0 1.0 0.00 0.00 0.00 77 1005.9
20260505022608 64 206 0.0 0.0 0.00 0.00 0.00 77 1005.6
20260505021538 65 206 0.0 0.0 0.00 0.00 0.00 75 1005.6
20260505020544 66 224 0.0 0.0 0.00 0.00 0.00 75 1005.4
20260505015603 67 254 0.0 1.0 0.00 0.00 0.00 74 1005.3
20260505014544 68 254 0.0 1.0 0.00 0.00 0.00 72 1005.1
20260505013542 68 254 0.0 1.0 0.00 0.00 0.00 70 1005.0
20260505012521 69 243 0.0 5.0 0.00 0.00 0.00 67 1004.9
20260505011534 70 249 0.0 5.0 0.00 0.00 0.00 68 1004.7
20260505010522 70 255 0.0 3.0 0.00 0.00 0.00 66 1004.6